Change the Weather History Date:

Monday, October 7, 2013

  Actual Average Record
Temperature  
Mean Temperature 57 °F -  
Max Temperature 66 °F 69 °F 88 °F (1980)
Min Temperature 50 °F 46 °F 33 °F (1985)
Degree Days  
Heating Degree Days 8    
Growing Degree Days 7 (Base 50)    
Moisture  
Dew Point 40 °F    
Average Humidity 57    
Maximum Humidity 70    
Minimum Humidity 44    
Precipitation  
Precipitation 0.01 in - - ()
Sea Level Pressure  
Sea Level Pressure 29.97 in    
Wind  
Wind Speed 9 mph (South)    
Max Wind Speed 23 mph    
Max Gust Speed 31 mph    
Visibility 10 miles    
Events Rain    
Averages and records for this station are not official NWS values.
T = Trace of Precipitation, MM = Missing Value Source: NWS Daily Summary

Daily Weather History Graph

Daily Weather History Graph

Search for Another Location

Airport or City:

Trip Planner

Search our weather history database for the weather conditions in past years. The results will help you decide how hot, cold, wet, or windy it might be!

Date:

Astronomy

Oct. 07, 2013 Rise Set
Actual Time 6:59 AM PDT 6:21 PM PDT
Civil Twilight 6:29 AM PDT 6:50 PM PDT
Nautical Twilight 5:55 AM PDT 7:25 PM PDT
Astronomical Twilight 5:20 AM PDT 8:00 PM PDT
Moon 10:05 AM PDT (10/7) 7:58 PM PDT (10/7)
Length of Visible Light 12h 21m
Length of Day
11h 21m
Waxing Crescent, 9% of the Moon is Illuminated
Oct 7
Waxing Crescent
Oct 11
First Quarter
Oct 18
Full
Oct 26
Last Quarter
Nov 3
New

Hourly Weather History & Observations

Time (PDT) Temp. Dew Point Humidity Pressure Visibility Wind Dir Wind Speed Gust Speed Precip Events Conditions
12:53 AM 52.0 °F 39.9 °F 63% 29.98 in 10.0 mi ESE 5.8 mph - N/A   Clear
1:53 AM 53.1 °F 39.9 °F 61% 29.96 in 10.0 mi ESE 6.9 mph - N/A   Clear
2:53 AM 52.0 °F 39.0 °F 61% 29.95 in 10.0 mi ESE 6.9 mph - N/A   Clear
3:53 AM 55.0 °F 37.9 °F 53% 29.92 in 10.0 mi ESE 8.1 mph - N/A   Clear
4:53 AM 54.0 °F 37.9 °F 55% 29.90 in 10.0 mi East 9.2 mph - N/A   Clear
5:53 AM 55.0 °F 37.9 °F 53% 29.90 in 10.0 mi Calm Calm - N/A   Clear
6:53 AM 52.0 °F 39.0 °F 61% 29.90 in 10.0 mi Calm Calm - N/A   Clear
7:53 AM 50.0 °F 39.9 °F 68% 29.94 in 10.0 mi North 4.6 mph - N/A   Scattered Clouds
8:53 AM 55.0 °F 39.9 °F 57% 29.95 in 10.0 mi ESE 6.9 mph - 0.00 in   Overcast
9:53 AM 59.0 °F 37.9 °F 46% 29.95 in 10.0 mi South 10.4 mph - N/A   Overcast
10:53 AM 61.0 °F 39.0 °F 44% 29.96 in 10.0 mi SSW 12.7 mph - N/A   Overcast
11:53 AM 63.0 °F 41.0 °F 45% 29.96 in 10.0 mi SSW 13.8 mph - N/A   Overcast
12:53 PM 62.1 °F 45.0 °F 53% 29.96 in 10.0 mi SW 15.0 mph - N/A   Overcast
1:53 PM 64.0 °F 42.1 °F 45% 29.96 in 10.0 mi WSW 23.0 mph 31.1 mph N/A   Scattered Clouds
2:53 PM 57.9 °F 46.9 °F 67% 29.97 in 8.0 mi SSW 17.3 mph - 0.00 in Rain Light Rain
3:53 PM 57.9 °F 48.0 °F 70% 29.97 in 10.0 mi SSW 12.7 mph - 0.01 in Rain Light Rain
4:53 PM 62.1 °F 39.9 °F 44% 29.96 in 10.0 mi SW 20.7 mph 27.6 mph 0.00 in   Overcast
5:53 PM 59.0 °F 37.9 °F 46% 29.98 in 10.0 mi SW 16.1 mph 25.3 mph N/A   Partly Cloudy
6:53 PM 55.9 °F 39.0 °F 53% 30.00 in 10.0 mi SSW 15.0 mph - N/A   Clear
7:53 PM 52.0 °F 39.0 °F 61% 30.01 in 10.0 mi South 10.4 mph - N/A   Clear
8:53 PM 51.1 °F 39.0 °F 63% 30.02 in 10.0 mi South 15.0 mph - N/A   Clear
9:53 PM 51.1 °F 39.0 °F 63% 30.02 in 10.0 mi SSW 12.7 mph - N/A   Clear
10:53 PM 52.0 °F 39.9 °F 63% 30.02 in 10.0 mi SSW 13.8 mph 18.4 mph N/A   Overcast
11:53 PM 51.1 °F 39.0 °F 63% 30.03 in 10.0 mi SSW 18.4 mph 23.0 mph N/A   Partly Cloudy